Location: Newark
(35.3494°N, 94.4375°W)
Time: 19:58:20
(UTC+00:00)

ISS - Visible Passes

Search period start: 18 September 2020 00:00
Search period end: 28 September 2020 00:00
Orbit: 419 x 420 km, 51.6° (Epoch: 19 September)

Date Brightness Start Highest point End Pass type
(mag) Time Alt. Az. Time Alt. Az. Time Alt. Az.
18 Sep -3.6 00:57:59 10° SSW 01:01:16 54° SE 01:04:34 10° ENE visible
18 Sep -1.0 02:35:59 10° WNW 02:38:09 17° NNW 02:38:09 17° NNW visible
19 Sep -1.6 01:47:55 10° W 01:50:47 25° NNW 01:53:14 12° NNE visible
20 Sep -2.5 01:00:06 10° WSW 01:03:19 41° NW 01:06:31 10° NE visible
21 Sep -0.8 01:51:46 10° NW 01:53:11 12° NNW 01:54:35 10° N visible
22 Sep -1.0 01:03:16 10° WNW 01:05:33 17° NNW 01:07:51 10° NNE visible
